Satellite-Ground Cal/Val Site Overpasses Predictions

Prediction of Satellite NPP Overpassing Cal/Val Site: Antarctic Dome C

Ground Cal/Val Site Location: Latitude: -75.10, Longitude: 123.35; Satellite-Ground Site NADIR distance within 100 km.

Table of predicted overpasses for the next 14.0 days since TLE Epoch: 7/3/2013
Interval Starting Time Ending Time Minimum Distance Time Minimum Distance (km)
1 07/03/2013 14:41:57 07/03/2013 14:42:23 07/03/2013 14:42:10 48.50
2 07/04/2013 07:43:38 07/04/2013 07:43:59 07/04/2013 07:43:49 68.15
3 07/05/2013 07:24:46 07/05/2013 07:25:13 07/05/2013 07:25:00 39.93
4 07/07/2013 15:07:12 07/07/2013 15:07:17 07/07/2013 15:07:15 97.96
5 07/08/2013 14:48:10 07/08/2013 14:48:39 07/08/2013 14:48:25 13.38
6 07/10/2013 07:30:59 07/10/2013 07:31:28 07/10/2013 07:31:14 4.48
7 07/13/2013 14:54:25 07/13/2013 14:54:54 07/13/2013 14:54:40 22.69
8 07/14/2013 14:35:42 07/14/2013 14:35:57 07/14/2013 14:35:50 84.45
9 07/15/2013 07:37:14 07/15/2013 07:37:42 07/15/2013 07:37:28 31.91


NCC Satellite Cal/Val Overpasses Prediction Service
